Overview Statistics Trail Chart Weather Telemetry Raw packets
 

This is the latest recevied weather packets stored in our database for station/object WX0ABE-13. If no packets are shown the sender has not sent any weather packets the latest 10 day(s).

<< 58 59 60 61 62 63 64 >>
Time Temp. Humidity Pressure Rain* Wind** Luminosity Snow
1787939068 30° C 40% 1018.2 hPa 0 mm - 644 W/m² -
1787938767 30° C 40% 1018.3 hPa 0 mm - 638 W/m² -
1787938463 30° C 40% 1018.3 hPa 0 mm - 632 W/m² -
1787938158 29.44° C 41% 1018.4 hPa 0 mm - 625 W/m² -
1787937853 30° C 40% 1018.5 hPa 0 mm - 617 W/m² -
1787937549 29.44° C 40% 1018.6 hPa 0 mm - 610 W/m² -
1787937245 29.44° C 41% 1018.6 hPa 0 mm - 604 W/m² -
1787936940 28.89° C 42% 1018.5 hPa 0 mm - 597 W/m² -
1787936639 28.89° C 42% 1018.4 hPa 0 mm - 589 W/m² -
1787936338 28.33° C 44% 1018.5 hPa 0 mm - 581 W/m² -
1787936034 28.33° C 44% 1018.5 hPa 0 mm - 572 W/m² -
1787935729 27.78° C 46% 1019 hPa 0 mm - 563 W/m² -
1787935426 27.78° C 48% 1018.7 hPa 0 mm - 551 W/m² -
1787935122 27.78° C 47% 1018.9 hPa 0 mm - 544 W/m² -
1787934816 27.22° C 47% 1018.9 hPa 0 mm - 533 W/m² -
1787934515 27.22° C 47% 1018.9 hPa 0 mm - 326 W/m² -
1787934211 26.67° C 50% 1019.1 hPa 0 mm - 77 W/m² -
1787933910 26.67° C 50% 1019 hPa 0 mm - 65 W/m² -
1787933609 25.56° C 53% 1019.1 hPa 0 mm - 350 W/m² -
1787933304 25.56° C 53% 1019.3 hPa 0 mm - 297 W/m² -
1787933004 25.56° C 55% 1019.2 hPa 0 mm - 466 W/m² -
1787932702 25° C 57% 1019.3 hPa 0 mm - 456 W/m² -
1787932397 25° C 58% 1019.2 hPa 0 mm - 443 W/m² -
1787932092 24.44° C 58% 1019.2 hPa 0 mm - 451 W/m² -
1787931791 23.89° C 60% 1019.3 hPa 0 mm - 438 W/m² -

* Rain latest hour (hover to see other rain measurements)
** Current wind speed in m/s (hover to see current wind gust speed)